This demonstration page uses our WeatherBlox Daily Observations layout. Learn more.

Left ArrowRight Arrow

41.86663, -103.66717

Hourly Observations for September 18, 2020

Temp ( °F °C ) Dew Point ( °F °C ) Humidity (%) Winds ( mph kmh ) Pressure ( in mb ) Visibility ( mi km ) Precip ( " mm )
12:53 am 00:53 Clear 49 9.4 45 7.2 86 86 NNE 3 6 30.2 1023 8 12.87472 0 0
1:53 am 01:53 Clear 49 9.4 45 7.2 86 86 NNE 7 11 30.19 1022 7 11.26538 0 0
2:53 am 02:53 Clear 48 8.9 44 6.7 86 86 N 7 11 30.17 1022 7 11.26538 0 0
3:53 am 03:53 Clear 46 7.8 43 6.1 89 89 NW 5 7 30.18 1022 7 11.26538 0 0
4:53 am 04:53 Clear 45 7.2 43 6.1 93 93 NW 6 9 30.19 1022 7 11.26538 0 0
5:53 am 05:53 Clear 43 6.1 41 5 93 93 Calm 30.2 1023 7 11.26538 0 0
6:53 am 06:53 Sunny with Mist and Fog 43 6.1 41 5 93 93 N 3 6 30.21 1023 6 9.65604 0 0
7:53 am 07:53 Sunny with Mist and Fog 49 9.4 46 7.8 90 90 Calm 30.21 1023 6 9.65604 0 0
8:53 am 08:53 Sunny 54 12.2 47 8.3 77 77 Calm 30.2 1023 7 11.26538 0 0
9:53 am 09:53 Sunny 61 16.1 49 9.4 65 65 Calm 30.19 1022 7 11.26538 0 0
10:53 am 10:53 Sunny 66 18.9 49 9.4 54 54 Calm 30.17 1022 7 11.26538 0 0
11:53 am 11:53 Sunny 71 21.7 51 10.6 49 49 ESE 8 13 30.13 1020 7 11.26538 0 0
12:53 pm 12:53 Sunny 75 23.9 53 11.7 46 46 ESE 12 19 30.11 1020 7 11.26538 0 0
1:53 pm 13:53 Sunny 78 25.6 54 12.2 43 43 SE 14 22 30.06 1018 7 11.26538 0 0
2:53 pm 14:53 Sunny 81 27.2 54 12.2 39 39 ESE 17 28 30.01 1016 7 11.26538 0 0
3:53 pm 15:53 Sunny 83 28.3 53 11.7 36 36 ESE 14 22 29.99 1016 7 11.26538 0 0
4:53 pm 16:53 Sunny 83 28.3 49 9.4 31 31 SE 14 22 29.97 1015 8 12.87472 0 0
5:53 pm 17:53 Sunny 79 26.1 49 9.4 35 35 SE 12 19 29.98 1015 8 12.87472 0 0
6:53 pm 18:53 Sunny 75 23.9 48 8.9 39 39 SE 12 19 29.99 1016 8 12.87472 0 0
7:53 pm 19:53 Clear 71 21.7 50 10 47 47 ESE 8 13 29.98 1015 9 14.48406 0 0
8:53 pm 20:53 Clear 67 19.4 51 10.6 57 57 E 9 15 29.99 1016 9 14.48406 0 0
9:53 pm 21:53 Clear 66 18.9 51 10.6 59 59 E 10 17 29.98 1015 9 14.48406 0 0
10:53 pm 22:53 Clear 62 16.7 51 10.6 67 67 ESE 9 15 29.96 1015 9 14.48406 0 0
11:53 pm 23:53 Clear 59 15 50 10 72 72 ESE 9 15 29.95 1014 9 14.48406 0 0

Powered by AerisWeather